Volver al catálogo

FENGYUN 1C DEB

ActivoPO
NORAD 30016·DEBRIS·🇨🇳 China

Lanzado May 10, 1999 desde Taiyuan Satellite Launch Center

Loading…

Próximos Pases (próximas 24 horas)

TLE

ActualizadoSource: Space-Track

Época: Sep 14, 2026, 09:25 UTC

1 30016U 99025MR  26257.39263461  .00006567  00000-0  76521-3 0  9999
2 30016  98.8845 304.9080 0039479 245.5189 126.7144 14.85081791 35382

Sigue FENGYUN 1C DEB en tiempo real con AllMySat

Download on the App Store